Regional Weather Roundup
Issued by NWS

Home | Current Version | Previous Version | Text Only | Print | Product List | Glossary Off
Versions: 1 2 3 4 5 6 7 8 9 10 11 12 13 14 15 16 17 18 19 20 21 22 23 24 25 26 27 28 29 30 31 32 33 34 35 36 37 38 39 40 41 42 43 44 45 46 47 48 49 50

000
ASUS43 KLOT 190410
RWRIL

ILLINOIS REGIONAL WEATHER ROUNDUP
NATIONAL WEATHER SERVICE CHICAGO/ROMEOVILLE IL
1100 PM CDT FRI APR 18 2014

NOTE: "FAIR" INDICATES FEW OR NO CLOUDS BELOW 12,000 FEET WITH NO
SIGNIFICANT WEATHER AND/OR OBSTRUCTIONS TO VISIBILITY.

* THESE STATIONS ARE NOT UNDER NWS QUALITY CONTROL. THEY ALSO MAY NOT
  REPORT WEATHER SUCH AS PRECIPITATION OR FOG.

ILZ001-002-007-009-015-016-024-190500-
NORTHWEST ILLINOIS

CITY           SKY/WX    TMP DP  RH WIND       PRES   REMARKS
MOLINE         CLEAR     50  32  50 E13       30.26F
STERLING*      CLEAR     41  34  75 E20       30.32R
SAVANNA*       CLEAR     45  35  67 E12G20    30.30S
$$

ILZ003-004-008-010-011-017-018-190500-
NORTH CENTRAL ILLINOIS

CITY           SKY/WX    TMP DP  RH WIND       PRES   REMARKS
ROCKFORD       CLEAR     39  28  64 E8        30.37R WCI  33
FREEPORT*      CLEAR     41  35  80 E13       30.35R
ROCHELLE*      CLEAR     38  31  76 E8        30.36R WCI  32
DE KALB*       CLEAR     35  28  76 E9        30.35F WCI  28
PERU*          CLEAR     42  34  73 E14       30.33S
$$

ILZ005-006-012>014-019>023-190500-
NORTHEAST ILLINOIS

CITY           SKY/WX    TMP DP  RH WIND       PRES   REMARKS
CHICAGO-OHARE  CLEAR     38  25  59 E8        30.37F WCI  32
CHICAGO-MIDWAY CLEAR     39  29  67 NE10      30.37F WCI  32
AURORA         CLEAR     38  28  67 E12       30.35S WCI  30
LANSING*       CLEAR     38  28  68 NE6       30.37S WCI  33
WAUKEGAN       CLEAR     35  27  72 N9        30.37F WCI  28
DUPAGE AIRPORT CLEAR     37  28  70 NE8       30.35F WCI  31
KANKAKEE*      CLEAR     37  31  77 NE13      30.35R WCI  29
WHEELING       CLEAR     37  28  70 NE6       30.39S WCI  32
MORRIS*        CLEAR     39  29  66 NE7       30.35S WCI  34
ROMEOVILLE*    CLEAR     38  29  69 NE15      30.34F WCI  30
NORTHERLY ISL    N/A     38  30  73 N12         N/A  WCI  30
$$

LMZ740>746-190500-
SOUTHERN LAKE MICHIGAN

STATION/POSITION SKY/WX   TEMP    WIND        PRES    VSBY  WAVE
                          AIR SEA DIR/SP/G                  HT/PER
                          (F)     (DEG/KT/KT) (MB)    (MI)  (FT/S)
WAUKEGAN HARBOR            38      20/ 12/ 16 1029.5F
HARRISON CRIB              38      20/ 10/ 12   N/A
BURNHAM HARBOR             38      20/  9/ 13   N/A
CALUMET HARBOR             38     350/  7/ 12 1029.2S
MICHIGAN CITY              38      10/ 10/ 13   N/A
$$

ILZ025>027-034>036-040-047-049-050-058-095>099-190500-
WEST-CENTRAL ILLINOIS

CITY           SKY/WX    TMP DP  RH WIND       PRES   REMARKS
QUINCY         CLEAR     56  28  34 E9        30.24S
GALESBURG*     CLEAR     50  34  55 E6        30.25F
MACOMB*        CLEAR     47  32  55 E7        30.28S
JACKSONVILLE*  CLEAR     49  31  49 E5        30.27S
PITTSFIELD*    CLEAR     55  29  37 E5        30.26S
$$

ILZ028>032-037-038-041>044-048-051>054-059>061-190500-
CENTRAL ILLINOIS

CITY           SKY/WX    TMP DP  RH WIND       PRES   REMARKS
PONTIAC        CLEAR     41  36  81 E10       30.34R
BLOOMINGTON    CLEAR     42  34  73 E14       30.33R
DECATUR        CLEAR     49  40  71 NE13      30.29R
PEORIA         CLEAR     51  37  58 E15G22    30.29R
LACON*         CLEAR     44  36  72 E15       30.32R
LINCOLN*       CLEAR     52  39  62 E14       30.29R
SPRINGFIELD    CLEAR     50  30  46 E10       30.27R
TAYLORVILLE    CLEAR     50  37  62 CALM      30.27R
$$

ILZ033-039-045-046-055>057-062-063-190500-
EAST-CENTRAL ILLINOIS

CITY           SKY/WX    TMP DP  RH WIND       PRES   REMARKS
CHAMPAIGN      CLEAR     49  37  63 NE17      30.31R
RANTOUL*       CLEAR     48  36  63 NE15      30.33R
MATTOON        CLEAR     52  41  66 NE9       30.28R
PARIS*         CLEAR     51  36  55 NE9       30.30R
$$

ILZ079-100>102-190500-
SOUTHWEST ILLINOIS

CITY           SKY/WX    TMP DP  RH WIND       PRES   REMARKS
ALTON          CLEAR     55  38  53 CALM      30.26S
BELLEVILLE     CLEAR     50  45  82 N3        30.23F
CAHOKIA*       CLEAR     53  46  77 CALM      30.24S
SPARTA*        CLEAR     57  43  58 N5        30.24S
$$

ILZ064>066-069>071-074>076-080>082-084>086-088>090-092>094-190500-
SOUTH-CENTRAL ILLINOIS

CITY           SKY/WX    TMP DP  RH WIND       PRES   REMARKS
CARBONDALE     CLEAR     54  46  74 CALM      30.23R
CAIRO*         PTCLDY    60  45  57 N3        30.22R
MARION         CLEAR     52  45  76 CALM      30.24R
MT. VERNON     CLEAR     46  37  71 CALM      30.24S
CENTRALIA*       N/A     51  44  75 CALM      30.25R
SALEM*         CLEAR     56  45  68 N3        30.25S
METROPOLIS*    MOCLDY    55  43  64 CALM      30.21R
$$

ILZ067-068-072-073-078-083-087-091-190500-
SOUTHEAST ILLINOIS

CITY           SKY/WX    TMP DP  RH WIND       PRES   REMARKS
FAIRFIELD*     CLEAR     57  46  67 N6        30.23S
HARRISBURG*    CLEAR     57  43  59 N5        30.24S
ROBINSON*      CLEAR     54  45  71 N6        30.26R
CARMI*         PTCLDY    54  49  82 N3        30.22S
$$

ABBREVIATIONS USED IN REMARKS
   TC - TEMPERATURE IN CELSIUS
  WCI - WIND CHILL INDEX
   HX - HEAT INDEX
  VSB - VISIBILITY
$$




USA.gov is the U.S. government's official web portal to all federal, state and local government web resources and services.